Home   Weather   Kings County   Past weeks

Flag for Canada Past Weather in Kings County, Nova Scotia, Canada — Yesterday and Last 2 Weeks

Now
74 °F

Mild.


Feels Like: 77 °F
Forecast: 50 / 73 °F
Wind: 6 mph from Northeast

Location: Kentville

Current Time: Jul 26, 2017 at 3:48:02 pm

Latest Report: Jul 26, 2017 at 3:00 pm


Visibility: N/A

Pressure: 30.14 "Hg

Humidity: 39%

Dew Point: 47 °F

Location of Kings CountyLocation

Past Weather in Kings County — Graph

°F

Kings County Temperature Yesterday

Maximum temperature yesterday: 65 °F (at 6:00 pm)
Minimum temperature yesterday: 53 °F (at 1:00 am)
Average temperature yesterday: 57 °F

High & Low Weather Summary for the Past Weeks

 TemperatureHumidityPressure
High83 °F (Jul 20, 5:00 pm)100% (Jul 20, 6:00 am)30.20 "Hg (Jul 20, 6:00 am)
Low45 °F (Jul 14, 6:00 am)29% (Jul 23, 6:00 pm)29.67 "Hg (Jul 22, 2:00 am)
Average66 °F73%29.96 "Hg
* Reported Jul 11 2:00 pm — Jul 26 2:00 pm, Kings County. Weather by CustomWeather, © 2017

Note: Actual official high and low records may vary slightly from our data, if they occured in-between our weather recording intervals... More about our weather records

Advertising

Kings County Weather History for the Previous 24 Hours

Scroll right to see more
 ConditionsComfort  
Time TempWeatherWind HumidityBarometerVisibility
2:00 pm
Wed, Jul 26
72 °FMild.3 mph49%30.16 "HgN/A
1:00 pm70 °FMild.5 mph55%30.17 "HgN/A
12:00 pm68 °FMild.6 mph55%30.18 "HgN/A
11:00 am66 °FMild.3 mph63%30.19 "HgN/A
10:00 am62 °FCool.3 mph71%30.20 "HgN/A
9:00 am58 °FCool.No wind82%30.20 "HgN/A
8:00 am55 °FCool.1 mph94%30.20 "HgN/A
7:00 am50 °FCool.No wind96%30.20 "HgN/A
6:00 am48 °FCool.1 mph97%30.18 "HgN/A
5:00 am49 °FCool.2 mph96%30.17 "HgN/A
4:00 am50 °FCool.2 mph95%30.16 "HgN/A
2:00 am51 °FCool.3 mph96%30.15 "HgN/A
12:00 am53 °FCool.2 mph95%30.13 "HgN/A
11:00 pm
Tue, Jul 25
55 °FCool.1 mph94%30.12 "HgN/A
10:00 pm57 °FCool.3 mph94%30.11 "HgN/A
9:00 pm60 °FCool.1 mph91%30.10 "HgN/A
8:00 pm64 °FMild.1 mph78%30.09 "HgN/A
7:00 pm65 °FMild.2 mph73%30.08 "HgN/A
6:00 pm65 °FMild.2 mph78%30.07 "HgN/A
5:00 pm63 °FMild.6 mph80%30.06 "HgN/A
4:00 pm62 °FMild.6 mph90%30.05 "HgN/A
3:00 pm61 °FCool.7 mph95%30.04 "HgN/A
Weather by CustomWeather, © 2017

See weather overviewHow to use our weather pages